Location: Emblem
(62.4273°N, 6.4710°E)
Time: 20:37:22
(UTC+02:00)

Vanguard 2 - Pass Details

Date: 06 February 2023
Orbit: 553 x 2927 km, 32.9° (Epoch: 27 March)

Event Time Altitude Azimuth Distance (km) Brightness Sun altitude
Rises 22:45:12 0° 221° (SW) 5,567 11.8 -38.3°
Enters shadow 22:48:33 - 210° (SSW) 5,126 11.5 -38.6°
Reaches altitude 10° 22:50:15 10° 204° (SSW) 4,956 - -38.7°
Maximum altitude 22:58:57 18° 168° (SSE) 4,761 - -39.3°
Drops below altitude 10° 23:08:51 10° 133° (SE) 5,737 - -39.9°
Sets 23:15:28 0° 119° (ESE) 6,768 - -40.3°
